Wind_Speed
71 69 67 64 62 61 60 60 60 60 60 61 61 59 57 54 49 46 42 39 33 26 16 8 9 16 23 29 35 38 40 42 44 49 54 59 66 72 79 87 94 101 106
70 68 66 63 61 60 59 59 59 59 60 60 60 59 57 54 50 45 41 36 31 23 14 6 1 8 15 22 28 33 37 40 41 45 50 55 61 67 74 80 87 94 100
69 67 65 62 61 59 58 58 58 58 59 59 60 59 56 54 50 45 40 34 28 21 13 8 3 4 9 16 22 27 32 37 39 42 47 52 58 62 68 75 81 88 94
68 66 64 62 60 59 58 58 57 57 58 58 58 58 56 54 51 46 40 33 26 19 12 7 3 2 7 13 18 22 27 33 36 39 44 50 55 59 63 69 75 81 88
67 65 64 61 59 58 57 57 57 56 57 57 57 57 56 54 51 47 40 34 26 19 12 7 3 1 6 10 15 18 23 29 33 36 41 46 52 56 60 65 70 76 82
66 65 63 61 59 58 57 56 56 56 56 56 56 56 55 54 51 47 42 35 28 20 13 8 4 2 5 9 13 17 21 25 30 33 38 43 49 53 57 62 67 73 78
66 64 62 60 59 57 57 56 55 55 55 55 55 54 54 53 51 48 44 38 30 23 16 10 6 4 4 8 12 16 19 23 27 31 35 41 46 50 54 58 63 70 75
65 64 62 60 58 57 56 55 55 54 54 54 54 53 53 52 50 48 45 41 34 26 19 13 8 6 5 7 11 15 18 21 25 29 34 39 44 49 52 56 60 66 72
65 64 62 59 57 56 55 55 54 54 54 53 53 52 52 52 50 48 46 42 38 31 22 16 11 7 7 7 10 13 17 20 23 27 32 37 43 47 51 54 57 62 68
65 63 62 59 57 56 55 54 54 54 53 53 52 52 51 51 50 48 46 43 40 35 28 20 14 9 7 8 9 12 16 19 22 26 30 35 41 45 49 53 55 58 63
65 64 62 59 57 55 54 54 53 53 53 52 51 51 51 50 49 48 46 44 42 38 33 26 19 13 8 7 9 12 15 18 21 25 29 34 39 44 48 52 54 56 59
64 63 62 59 57 55 54 53 53 52 52 51 50 49 49 49 48 47 46 45 42 40 36 30 23 16 10 6 7 11 14 17 20 24 28 33 38 43 47 50 53 54 56
63 63 62 60 57 55 53 52 52 51 51 50 49 48 48 47 47 46 46 45 43 41 38 33 27 20 13 7 5 9 13 16 20 23 27 32 37 42 45 49 51 53 54
63 62 61 60 57 55 52 52 51 50 50 49 49 48 47 47 46 46 45 44 43 42 39 35 30 24 17 10 5 6 11 15 18 22 26 31 36 40 44 47 50 51 53
62 62 61 59 57 55 53 51 50 50 50 49 49 48 47 46 46 46 46 45 43 42 40 37 32 27 20 13 7 4 8 13 17 21 25 30 34 39 43 46 48 50 51
61 61 60 59 57 54 52 51 51 50 50 49 48 48 47 46 46 45 45 44 43 42 40 37 34 29 23 17 10 3 5 10 15 20 24 29 33 38 41 45 47 49 50
61 60 59 58 57 54 51 50 49 49 49 49 48 47 46 46 45 44 43 44 43 42 40 37 34 30 25 19 13 5 2 8 14 19 24 28 32 36 40 44 47 48 50
60 59 59 58 57 54 51 49 48 47 47 47 47 46 45 45 44 44 43 43 42 42 40 37 34 31 26 21 15 7 1 6 12 17 22 27 31 35 39 43 46 48 49
59 59 58 58 57 55 52 49 48 47 46 46 45 45 45 44 44 44 43 42 42 41 40 38 35 31 27 22 16 9 2 4 10 16 21 26 30 34 37 41 44 46 47
58 58 57 57 56 55 52 49 48 46 45 45 44 44 43 43 43 43 43 42 42 41 40 38 35 31 26 22 17 11 4 4 9 15 20 25 29 32 36 40 42 44 46
57 57 56 56 55 54 52 49 47 46 45 45 44 43 43 43 43 43 43 43 42 41 40 38 36 31 27 22 17 11 5 3 8 13 18 23 28 32 35 38 41 42 44
55 55 55 55 55 54 52 50 47 45 44 44 44 43 43 43 43 43 42 43 42 41 40 38 36 32 27 22 17 12 6 2 7 13 17 22 27 31 34 37 39 41 42
54 54 54 54 54 53 52 50 47 45 44 43 43 43 42 43 42 42 42 42 42 41 40 38 36 33 28 23 18 12 6 1 6 12 16 21 25 29 33 36 38 40 41
52 52 52 53 53 52 51 50 47 45 43 42 42 42 42 42 42 42 42 42 42 41 40 38 36 33 29 24 19 13 7 1 5 11 15 19 24 28 31 34 37 39 40
51 51 51 51 51 51 51 49 47 45 43 42 42 41 41 41 41 41 42 42 42 41 39 38 36 33 29 25 20 14 7 2 4 10 15 19 22 27 30 33 35 38 40
49 49 50 50 50 50 50 49 47 45 43 41 41 40 40 40 41 41 41 42 41 40 39 38 35 32 30 26 21 15 9 3 3 9 14 19 22 25 29 31 34 36 39
Wind_Direction
343 344 344 344 345 346 346 347 348 349 351 352 353 353 353 353 353 352 352 352 353 350 343 315 247 226 221 219 219 219 219 218 219 220 218 216 213 213 212 212 211 209 208
345 345 346 346 347 348 348 349 350 352 353 355 356 356 356 357 357 356 355 358 360 2 7 11 241 214 215 214 215 217 217 216 217 218 217 215 212 211 211 211 210 209 208
346 347 347 348 349 350 350 351 352 354 355 356 358 359 359 360 0 359 0 2 6 12 23 38 72 182 204 209 212 215 215 215 216 216 216 214 211 210 209 209 208 208 207
348 348 349 349 350 351 352 353 354 355 357 358 359 1 2 2 3 4 5 5 7 14 25 36 55 177 200 204 210 214 214 214 214 215 215 213 211 208 208 207 207 206 206
349 349 350 351 351 352 353 354 355 356 358 359 1 2 4 5 5 7 7 8 8 12 19 29 22 253 212 209 211 213 214 213 213 213 213 212 210 208 207 206 206 205 204
350 351 351 352 352 353 354 355 356 358 359 1 2 3 5 6 7 8 9 8 8 7 7 7 1 305 227 218 215 214 213 212 211 211 211 210 208 207 206 205 204 204 203
351 352 352 353 353 354 355 356 357 359 360 1 3 4 5 6 8 9 9 9 8 6 359 350 336 305 256 229 219 215 212 211 210 209 209 208 207 205 204 204 203 202 202
352 353 353 353 354 355 356 357 358 359 0 2 4 5 6 7 8 9 10 10 9 6 2 353 336 303 272 241 222 215 211 210 209 209 208 207 206 203 202 202 201 201 201
352 353 354 354 355 356 356 358 359 360 1 2 4 5 7 7 8 9 10 10 10 8 2 356 342 314 282 254 230 217 211 209 209 208 207 206 205 203 201 200 200 200 201
352 353 354 354 355 356 357 358 359 0 1 3 4 5 6 7 8 9 9 10 10 9 6 359 348 329 294 262 237 220 213 209 207 207 205 204 203 202 201 200 199 199 200
352 353 354 355 355 356 357 358 359 0 1 3 3 4 6 7 8 9 9 10 11 10 8 4 356 344 321 279 242 224 216 210 207 205 204 203 201 200 199 199 199 199 200
352 353 354 355 356 356 357 358 359 0 1 3 3 4 5 6 7 8 10 10 11 10 9 7 3 355 338 306 251 227 218 211 207 205 203 201 200 199 198 197 197 198 199
352 353 354 354 355 356 357 358 359 0 1 2 3 3 5 6 7 8 9 10 10 10 10 9 7 3 353 329 274 232 218 211 208 205 202 200 198 197 196 196 196 197 198
352 353 354 354 355 356 357 357 358 360 1 1 2 3 4 5 6 8 9 10 10 10 10 10 9 8 3 349 310 244 221 212 208 205 201 198 196 195 195 195 195 196 197
351 352 353 354 354 355 356 357 358 359 360 1 2 3 4 4 5 7 8 9 9 10 10 10 10 9 8 3 343 270 222 212 207 203 199 196 194 194 194 194 194 194 195
350 352 353 354 354 354 355 356 357 358 359 0 1 2 3 4 4 5 6 7 8 8 9 9 10 10 9 7 1 328 222 207 204 200 197 195 193 192 192 192 192 193 194
350 351 352 353 354 355 355 355 356 357 358 359 0 1 2 3 4 4 5 6 7 7 7 8 9 9 11 10 9 3 228 202 198 197 195 193 192 191 191 191 192 192 192
348 350 351 353 354 354 355 355 356 357 357 358 359 0 1 2 3 4 4 4 5 6 6 7 7 9 10 12 12 13 23 192 192 191 192 192 191 190 190 190 191 192 191
347 349 350 352 353 354 354 355 355 356 357 358 358 359 0 1 2 3 3 4 4 5 6 6 6 7 10 12 14 17 37 172 183 187 189 190 190 190 190 190 190 191 192
346 348 349 351 352 353 354 354 355 356 357 357 358 359 360 0 1 2 3 3 3 4 5 6 6 7 9 11 14 18 37 156 176 182 185 187 188 189 189 189 190 190 191
345 346 348 350 351 352 353 354 354 355 356 357 357 358 359 360 1 1 2 2 3 3 4 5 6 7 7 9 12 16 30 141 173 179 183 185 188 189 189 189 189 190 191
344 345 347 348 350 351 352 353 354 354 355 356 357 357 358 359 360 1 1 2 2 3 4 4 6 6 7 7 9 13 25 126 171 178 183 185 186 187 188 189 189 190 191
343 344 346 347 349 350 352 352 353 354 355 355 356 357 358 359 359 0 1 2 2 3 3 4 5 6 6 6 7 10 18 99 172 178 182 184 186 187 188 189 190 190 191
342 343 345 346 348 349 351 352 352 353 354 355 356 356 357 358 359 360 1 1 2 3 4 4 5 6 7 7 7 8 13 55 174 180 182 183 185 187 187 188 189 191 191
340 342 343 345 347 348 350 351 352 352 353 354 355 356 357 358 359 360 0 1 2 3 4 5 5 7 8 8 8 8 9 25 175 182 184 184 185 187 188 189 189 190 191
338 340 342 344 346 347 349 350 351 352 353 353 354 355 357 358 358 359 0 1 2 3 4 5 6 7 8 8 8 8 9 9 180 183 185 186 186 187 188 188 189 189 190
Height
5588 5572 5555 5540 5524 5509 5494 5480 5465 5449 5434 5418 5401 5385 5369 5354 5339 5325 5312 5300 5289 5280 5274 5272 5273 5276 5281 5288 5296 5304 5312 5321 5328 5336 5345 5356 5369 5383 5399 5416 5435 5455 5477
5583 5567 5551 5535 5520 5505 5491 5476 5461 5446 5430 5415 5399 5383 5367 5352 5338 5324 5312 5300 5290 5282 5277 5275 5275 5277 5280 5285 5291 5298 5306 5314 5322 5329 5337 5348 5360 5374 5388 5405 5423 5442 5463
5578 5562 5547 5531 5517 5502 5488 5473 5458 5444 5428 5413 5398 5382 5367 5352 5338 5325 5312 5302 5293 5286 5282 5279 5279 5279 5281 5285 5289 5295 5301 5309 5316 5323 5331 5341 5353 5365 5380 5395 5412 5430 5450
5574 5559 5543 5528 5514 5499 5485 5471 5456 5442 5428 5413 5397 5382 5367 5353 5339 5326 5315 5305 5297 5291 5286 5284 5283 5282 5283 5285 5289 5293 5298 5305 5311 5318 5326 5335 5346 5358 5372 5386 5403 5420 5439
5571 5555 5540 5525 5511 5497 5483 5469 5455 5441 5427 5412 5398 5383 5369 5355 5342 5329 5318 5309 5301 5295 5291 5288 5286 5285 5285 5286 5289 5292 5296 5301 5308 5314 5321 5330 5340 5352 5365 5378 5394 5410 5428
5568 5553 5538 5523 5509 5495 5482 5468 5454 5440 5427 5413 5399 5385 5371 5358 5345 5333 5322 5313 5305 5299 5294 5291 5288 5287 5286 5287 5288 5291 5294 5299 5305 5310 5317 5325 5335 5346 5358 5371 5386 5402 5420
5565 5550 5535 5521 5507 5494 5480 5467 5454 5441 5427 5414 5400 5387 5374 5361 5348 5337 5326 5316 5308 5302 5297 5293 5290 5288 5287 5287 5288 5290 5293 5297 5302 5307 5314 5321 5330 5341 5353 5366 5379 5394 5411
5563 5548 5534 5520 5506 5493 5480 5467 5454 5441 5428 5415 5402 5389 5376 5364 5352 5340 5329 5320 5311 5304 5298 5294 5291 5288 5287 5286 5287 5289 5292 5295 5300 5305 5311 5318 5326 5336 5348 5361 5374 5388 5404
5561 5547 5533 5519 5505 5492 5480 5467 5454 5441 5429 5416 5404 5391 5379 5367 5355 5344 5333 5323 5314 5306 5300 5295 5291 5289 5287 5286 5286 5288 5290 5293 5297 5302 5308 5314 5323 5333 5344 5356 5369 5382 5397
5560 5545 5531 5518 5505 5492 5479 5467 5454 5442 5429 5417 5405 5393 5381 5370 5358 5347 5337 5327 5317 5308 5301 5296 5291 5288 5286 5285 5285 5287 5289 5292 5295 5300 5305 5312 5320 5329 5340 5352 5364 5377 5390
5558 5544 5530 5517 5504 5492 5479 5467 5455 5442 5429 5417 5406 5394 5383 5372 5361 5351 5340 5330 5320 5312 5304 5297 5292 5288 5285 5284 5284 5285 5287 5290 5293 5298 5303 5309 5317 5326 5336 5348 5360 5372 5385
5557 5543 5530 5517 5504 5491 5479 5467 5455 5443 5431 5419 5408 5397 5386 5375 5365 5354 5344 5333 5324 5315 5307 5299 5293 5288 5285 5283 5283 5284 5285 5288 5292 5296 5301 5307 5314 5323 5333 5344 5356 5368 5380
5555 5542 5529 5515 5503 5491 5479 5467 5456 5444 5433 5422 5411 5400 5389 5379 5368 5358 5347 5337 5327 5318 5310 5302 5295 5289 5285 5283 5282 5282 5284 5286 5290 5294 5298 5304 5311 5320 5330 5340 5352 5364 5376
5554 5540 5527 5514 5502 5490 5479 5468 5457 5446 5435 5424 5413 5402 5391 5381 5371 5361 5350 5340 5331 5321 5312 5304 5297 5291 5286 5283 5282 5282 5283 5285 5287 5291 5296 5302 5309 5317 5327 5337 5348 5360 5372
5552 5539 5526 5513 5501 5489 5478 5468 5457 5446 5436 5425 5414 5403 5393 5383 5372 5361 5352 5342 5333 5324 5315 5307 5299 5293 5288 5284 5282 5281 5281 5283 5286 5289 5294 5300 5307 5315 5324 5334 5345 5356 5368
5551 5538 5526 5513 5501 5488 5477 5466 5455 5446 5435 5424 5414 5403 5393 5383 5373 5364 5354 5345 5335 5326 5318 5310 5302 5295 5289 5285 5282 5281 5281 5282 5285 5288 5293 5299 5305 5313 5322 5332 5342 5353 5365
5550 5537 5525 5513 5501 5489 5478 5467 5456 5445 5434 5425 5415 5404 5395 5385 5375 5366 5356 5347 5338 5329 5320 5312 5304 5297 5291 5286 5283 5281 5281 5282 5284 5287 5292 5298 5304 5312 5320 5329 5339 5350 5361
5549 5537 5525 5513 5501 5489 5478 5467 5457 5447 5436 5426 5416 5406 5396 5386 5377 5368 5358 5349 5340 5331 5322 5314 5306 5299 5293 5288 5284 5282 5281 5282 5284 5287 5292 5297 5304 5311 5319 5327 5337 5347 5358
5547 5535 5523 5512 5500 5489 5478 5467 5457 5447 5437 5427 5417 5407 5397 5388 5379 5369 5360 5351 5342 5333 5324 5316 5308 5301 5295 5289 5286 5283 5282 5282 5284 5287 5292 5297 5303 5310 5318 5326 5335 5345 5355
5545 5534 5522 5511 5499 5488 5477 5467 5456 5447 5437 5428 5418 5409 5399 5390 5380 5371 5362 5353 5343 5334 5326 5317 5309 5302 5296 5291 5287 5284 5283 5283 5285 5288 5292 5297 5303 5309 5317 5325 5334 5343 5353
5543 5532 5520 5509 5498 5487 5476 5466 5456 5446 5437 5428 5418 5409 5400 5390 5381 5372 5363 5354 5344 5335 5327 5318 5310 5303 5297 5292 5288 5285 5284 5284 5285 5288 5292 5297 5302 5309 5316 5324 5332 5341 5350
5541 5530 5519 5508 5497 5486 5475 5465 5455 5446 5436 5427 5418 5409 5400 5390 5381 5372 5363 5354 5345 5336 5327 5319 5311 5304 5298 5293 5289 5286 5285 5284 5286 5288 5292 5296 5302 5308 5315 5322 5330 5339 5347
5538 5527 5517 5506 5495 5485 5474 5464 5454 5445 5435 5426 5418 5409 5400 5391 5382 5373 5364 5355 5345 5337 5328 5320 5312 5305 5299 5293 5289 5286 5285 5285 5286 5288 5292 5296 5301 5307 5313 5321 5328 5336 5345
5535 5525 5514 5504 5494 5483 5473 5462 5453 5444 5435 5426 5417 5408 5400 5391 5382 5373 5364 5355 5346 5337 5329 5320 5313 5306 5299 5294 5289 5286 5285 5285 5286 5288 5291 5295 5300 5306 5312 5319 5326 5334 5342
5532 5522 5512 5502 5492 5481 5471 5461 5452 5442 5434 5425 5417 5408 5400 5391 5382 5374 5365 5356 5347 5338 5329 5321 5313 5307 5300 5295 5290 5287 5285 5285 5285 5287 5290 5295 5299 5304 5311 5317 5324 5331 5339
5528 5519 5509 5499 5489 5479 5470 5460 5450 5441 5433 5424 5416 5408 5400 5391 5383 5374 5365 5357 5348 5339 5331 5322 5315 5308 5301 5295 5291 5287 5285 5284 5285 5287 5289 5293 5298 5303 5309 5315 5322 5329 5336